2023/02/07 00:00:00,72.1,-0.1
2023/02/07 00:10:00,72.1, 0.0
2023/02/07 00:20:00,72.1, 0.0
2023/02/07 00:30:00,72.0,-0.1
2023/02/07 00:40:00,72.0,-0.2
2023/02/07 00:50:00,71.9, 0.0
2023/02/07 01:00:00,71.9, 0.0
2023/02/07 01:10:00,71.8,-0.1
2023/02/07 01:20:00,71.8, 0.1
2023/02/07 01:30:00,71.8, 0.2
2023/02/07 01:40:00,71.8, 0.1
2023/02/07 01:50:00,72.0, 0.0
2023/02/07 02:00:00,72.0, 0.0
2023/02/07 02:10:00,71.8, 0.0
2023/02/07 02:20:00,71.8, 0.3
2023/02/07 02:30:00,71.8, 0.0
2023/02/07 02:40:00,71.7, 0.3
2023/02/07 02:50:00,71.6, 0.0
2023/02/07 03:00:00,71.5,-0.2
2023/02/07 03:10:00,71.4, 0.2
2023/02/07 03:20:00,71.3, 0.1
2023/02/07 03:30:00,71.2, 0.2
2023/02/07 03:40:00,71.1,-0.1
2023/02/07 03:50:00,70.9, 0.5
2023/02/07 04:00:00,70.9, 0.2
2023/02/07 04:10:00,70.8, 0.2
2023/02/07 04:20:00,70.8, 0.2
2023/02/07 04:30:00,70.6, 0.0
2023/02/07 04:40:00,70.6, 0.4
2023/02/07 04:50:00,70.5, 0.2
2023/02/07 05:00:00,70.4, 0.1
2023/02/07 05:10:00,70.3, 0.2
2023/02/07 05:20:00,70.3, 0.1
2023/02/07 05:30:00,70.4, 0.1
2023/02/07 05:40:00,70.4, 0.0
2023/02/07 05:50:00,70.1, 0.2
2023/02/07 06:00:00,69.8, 0.1
2023/02/07 06:10:00,69.7, 0.0
2023/02/07 06:20:00,69.7, 0.1
2023/02/07 06:30:00,69.7, 0.2
2023/02/07 06:40:00,69.6, 0.2
2023/02/07 06:50:00,69.6, 0.2
2023/02/07 07:00:00,69.6, 0.1
2023/02/07 07:10:00,69.3, 0.2
2023/02/07 07:20:00,69.2, 0.1
2023/02/07 07:30:00,69.1, 0.3
2023/02/07 07:40:00,69.0, 0.5
2023/02/07 07:50:00,69.0, 0.6
2023/02/07 08:00:00,68.9, 0.7
2023/02/07 08:10:00,69.0, 0.7
2023/02/07 08:20:00,68.9, 0.7
2023/02/07 08:30:00,68.9, 0.8
2023/02/07 08:40:00,68.7, 1.0
2023/02/07 08:50:00,68.5, 1.1
2023/02/07 09:00:00,68.4, 1.4
2023/02/07 09:10:00,68.5, 1.6
2023/02/07 09:20:00,68.7, 1.7
2023/02/07 09:30:00,68.8, 2.0
2023/02/07 09:40:00,68.7, 2.3
2023/02/07 09:50:00,68.7, 2.5
2023/02/07 10:00:00,68.6, 2.8
2023/02/07 10:10:00,68.4, 3.0
2023/02/07 10:20:00,68.4, 3.2
2023/02/07 10:30:00,68.4, 3.4
2023/02/07 10:40:00,68.2, 4.4
2023/02/07 10:50:00,68.1, 4.0
2023/02/07 11:00:00,68.0, 4.1
2023/02/07 11:10:00,85.2, 4.5
2023/02/07 11:20:00,67.6, 5.3
2023/02/07 11:30:00,67.4, 5.5
2023/02/07 11:40:00,66.9, 4.7
2023/02/07 11:50:00,66.8, 4.9
2023/02/07 12:00:00,66.7, 5.8
2023/02/07 12:10:00,66.3, 5.5
2023/02/07 12:20:00,66.5, 5.4
2023/02/07 12:30:00,66.3, 5.6
2023/02/07 12:40:00,66.2, 5.3
2023/02/07 12:50:00,66.0, 4.7
2023/02/07 13:00:00,65.8, 4.7
2023/02/07 13:10:00,65.8, 4.8
2023/02/07 13:20:00,---, 5.2
2023/02/07 13:30:00,65.5, 5.7
2023/02/07 13:40:00,65.2, 5.7
2023/02/07 13:50:00,72.5, 5.9
2023/02/07 14:00:00,---, 7.4
2023/02/07 14:10:00,---, 6.7
2023/02/07 14:20:00,---, 5.7
2023/02/07 14:30:00,63.9, 5.6
2023/02/07 14:40:00,64.0, 5.1
2023/02/07 14:50:00,63.8, 4.7
2023/02/07 15:00:00,63.5, 4.9
2023/02/07 15:10:00,63.3, 4.4
2023/02/07 15:20:00,63.1, 3.9
2023/02/07 15:30:00,62.8, 3.5
2023/02/07 15:40:00,62.6, 3.0
2023/02/07 15:50:00,62.7, 2.6
2023/02/07 16:00:00,62.6, 2.4
2023/02/07 16:10:00,62.1, 2.5
2023/02/07 16:20:00,61.9, 2.3
2023/02/07 16:30:00,62.0, 1.9
2023/02/07 16:40:00,62.1, 1.9
2023/02/07 16:50:00,62.1, 1.6
2023/02/07 17:00:00,62.0, 1.8
2023/02/07 17:10:00,61.8, 1.8
2023/02/07 17:20:00,61.4, 1.4
2023/02/07 17:30:00,61.2, 1.2
2023/02/07 17:40:00,61.4, 1.3
2023/02/07 17:50:00,61.5, 1.2
2023/02/07 18:00:00,61.5, 1.1
2023/02/07 18:10:00,61.4, 1.0
2023/02/07 18:20:00,61.4, 0.9
2023/02/07 18:30:00,61.4, 1.0
2023/02/07 18:40:00,61.4, 0.8
2023/02/07 18:50:00,61.0, 0.8
2023/02/07 19:00:00,60.7, 0.7
2023/02/07 19:10:00,60.6, 0.8
2023/02/07 19:20:00,60.5, 0.8
2023/02/07 19:30:00,60.5, 0.8
2023/02/07 19:40:00,60.5, 0.7
2023/02/07 19:50:00,60.2, 0.3
2023/02/07 20:00:00,60.2, 0.5
2023/02/07 20:10:00,60.2, 0.5
2023/02/07 20:20:00,60.1, 0.4
2023/02/07 20:30:00,60.0, 0.5
2023/02/07 20:40:00,60.0, 0.3
2023/02/07 20:50:00,60.0, 0.3
2023/02/07 21:00:00,59.9, 0.3
2023/02/07 21:10:00,59.9, 0.4
2023/02/07 21:20:00,59.9, 0.2
2023/02/07 21:30:00,60.1, 0.1
2023/02/07 21:40:00,60.1,-0.1
2023/02/07 21:50:00,60.0,-0.2
2023/02/07 22:00:00,60.0,-0.3
2023/02/07 22:10:00,59.9,-0.4
2023/02/07 22:20:00,59.9,-0.4
2023/02/07 22:30:00,59.8,-0.6
2023/02/07 22:40:00,59.8,-0.6
2023/02/07 22:50:00,59.6,-0.6
2023/02/07 23:00:00,59.6,-0.6
2023/02/07 23:10:00,59.5,-0.7
2023/02/07 23:20:00,59.4,-0.7
2023/02/07 23:30:00,59.3,-0.8
2023/02/07 23:40:00,59.2,-0.7
2023/02/07 23:50:00,59.1,-0.7
